Find Starlink 30402

NORAD ID: 57827 Int'l Des: 2023-138 Owner: SPXS Country: US Constellation: starlink operational
LEOCIRCULAR

Live Position

Loading 3D Globe...

About Starlink 30402

Description loading...

Upcoming Passes

Passes for default location (London). Set your location on the main map for personalized predictions.

Altitude History

Loading altitude history...

Two-Line Element Set

1 57827U 23138V 26126.38963582 .00006041 00000-0 22879-3 0 9999
2 57827 43.0039 268.2451 0002061 276.7420 83.3197 15.27590745147553
Epoch: May 6, 2026 • Age: 10 hours

Current Status

Altitude 485.0 km
Velocity 7.63 km/s
Sub-Earth Point 32.52°N, 159.28°E
Launch Date Sep 9, 2023
Age 2.6 years
Type internet

Technical Details

Classification Payload
Mass 730.00 kg
Dry Mass 700.00 kg
Total Mass 730.00 kg
Length 0.30 m
Diameter 4.10 m
Span 29.00 m
Shape Box + pan
Manufacturer SPXS
Bus Type Starlink V2M
Phase Status In Orbit
Owner/State SPXS/US

Most Searched